DW1347 Weather Reports


time (UTC)temp
C
wind
direction
speed
KPH
gust
KPH
rain 1hr
cm
rain 24hr
cm
rain mn
cm
humidity
%
barometer
mb
20260505204645 1 46 4.8 4.8 0.00 0.03 0.03 99 1017.3
20260505204143 0 66 4.8 4.8 0.00 0.03 0.03 99 1017.2
20260505203640 0 77 0.0 1.6 0.00 0.03 0.03 99 1017.5
20260505203137 0 6 4.8 9.7 0.00 0.03 0.03 99 1017.8
20260505202632 0 66 4.8 4.8 0.00 0.03 0.03 98 1017.9
20260505202128 1 21 9.7 12.9 0.00 0.03 0.03 98 1017.7
20260505201625 1 255 1.6 1.6 0.00 0.03 0.03 97 1017.5
20260505201117 1 218 0.0 0.0 0.00 0.03 0.03 98 1017.3
20260505200615 1 205 3.2 4.8 0.00 0.03 0.03 97 1017.5
20260505200112 1 166 1.6 3.2 0.00 0.03 0.03 98 1017.8
20260505195608 1 278 1.6 1.6 0.00 0.03 0.03 98 1017.7
20260505195106 1 296 4.8 8.0 0.00 0.03 0.03 97 1017.9
20260505194602 1 92 3.2 4.8 0.00 0.03 0.03 98 1017.9
20260505194058 0 203 1.6 1.6 0.00 0.03 0.03 98 1017.8
20260505193555 1 30 1.6 3.2 0.00 0.03 0.03 97 1017.9
20260505193052 1 72 8.0 11.3 0.00 0.03 0.03 98 1017.8
20260505192551 0 131 1.6 3.2 0.00 0.03 0.03 98 1018.0
20260505192048 0 238 4.8 4.8 0.00 0.03 0.03 99 1017.8
20260505191546 0 52 0.0 1.6 0.00 0.03 0.03 99 1017.7
20260505191044 0 165 0.0 1.6 0.00 0.03 0.03 99 1018.2
20260505190538 0 262 0.0 1.6 0.00 0.03 0.03 99 1018.0
20260505190034 0 92 3.2 3.2 0.00 0.03 0.03 99 1018.2
20260505185531 1 225 0.0 1.6 0.00 0.03 0.03 99 1018.3
20260505185028 0 229 4.8 4.8 0.00 0.03 0.03 99 1018.0
20260505184524 0 278 3.2 3.2 0.00 0.03 0.03 99 1018.3
20260505184022 0 265 3.2 3.2 0.00 0.03 0.03 99 1018.2
20260505183518 0 222 1.6 3.2 0.00 0.03 0.03 99 1018.2
20260505183015 0 258 4.8 4.8 0.00 0.03 0.03 99 1018.3
20260505182512 0 203 4.8 4.8 0.00 0.03 0.03 99 1018.4
20260505182008 0 239 3.2 3.2 0.00 0.03 0.03 99 1018.5
20260505181505 0 303 1.6 1.6 0.00 0.03 0.03 99 1018.5
20260505181002 0 60 3.2 4.8 0.00 0.03 0.03 99 1018.7
20260505180458 0 196 8.0 9.7 0.00 0.03 0.03 99 1018.7
20260505175955 0 292 0.0 1.6 0.00 0.03 0.03 99 1018.8
20260505175445 0 167 3.2 4.8 0.00 0.03 0.03 99 1018.5
20260505174941 0 323 0.0 1.6 0.00 0.03 0.03 99 1019.0
20260505174434 0 334 1.6 3.2 0.00 0.03 0.03 99 1018.8
20260505173929 0 88 0.0 1.6 0.00 0.03 0.03 99 1018.9
20260505173426 0 28 3.2 4.8 0.00 0.03 0.03 99 1018.8
20260505172923 0 219 0.0 0.0 0.00 0.03 0.03 99 1018.9
20260505172422 0 185 0.0 0.0 0.00 0.03 0.03 99 1018.7
20260505171920 0 247 3.2 3.2 0.00 0.03 0.03 99 1018.9
20260505171418 0 221 0.0 0.0 0.00 0.03 0.03 99 1019.0
20260505170914 0 170 4.8 4.8 0.00 0.03 0.03 99 1019.0
20260505170411 0 32 1.6 3.2 0.00 0.03 0.03 99 1018.9
20260505165906 0 241 1.6 1.6 0.00 0.03 0.03 99 1019.0
20260505165403 0 89 4.8 4.8 0.00 0.03 0.03 99 1018.9
20260505164858 0 170 1.6 3.2 0.00 0.03 0.03 99 1018.7
20260505164355 0 231 0.0 0.0 0.00 0.03 0.03 99 1018.9
20260505163853 0 212 0.0 1.6 0.00 0.03 0.03 99 1019.3
20260505163352 0 238 0.0 0.0 0.00 0.03 0.03 99 1019.2
20260505162850 0 33 1.6 3.2 0.00 0.03 0.03 99 1019.2
20260505162345 0 158 3.2 3.2 0.00 0.03 0.03 99 1019.0
20260505161843 0 353 3.2 4.8 0.00 0.03 0.03 99 1019.2
20260505161340 0 186 0.0 1.6 0.00 0.03 0.03 99 1019.7
20260505160837 0 218 0.0 1.6 0.00 0.03 0.03 99 1019.4
20260505160335 0 223 1.6 1.6 0.00 0.03 0.03 99 1019.4
20260505153314 0 265 1.6 1.6 0.00 0.03 0.03 99 1019.3
20260505152811 0 180 0.0 0.0 0.00 0.03 0.03 99 1019.6
20260505152308 0 25 3.2 4.8 0.00 0.03 0.03 99 1019.4
20260505151802 0 149 3.2 3.2 0.00 0.03 0.03 99 1019.4
20260505151259 0 165 3.2 3.2 0.00 0.03 0.03 99 1019.6
20260505150756 0 351 4.8 4.8 0.00 0.03 0.03 99 1019.4
20260505150253 0 15 8.0 9.7 0.00 0.03 0.03 99 1019.7
20260505140217 0 341 4.8 4.8 0.00 0.00 0.00 99 1019.8
20260505130142 0 320 4.8 4.8 0.00 0.00 0.00 99 1019.3
20260505124631 0 341 1.6 1.6 0.00 0.00 0.00 99 1019.0
20260505124128 0 17 4.8 4.8 0.00 0.00 0.00 99 1019.0
20260505123623 0 291 3.2 3.2 0.00 0.00 0.00 99 1019.2
20260505123120 0 252 6.4 9.7 0.00 0.00 0.00 99 1019.2
20260505122617 0 284 3.2 3.2 0.00 0.00 0.00 99 1018.8
20260505122114 0 272 3.2 3.2 0.00 0.00 0.00 99 1018.9
20260505121605 0 253 0.0 0.0 0.00 0.00 0.00 99 1018.9
20260505121102 0 13 3.2 4.8 0.00 0.00 0.00 99 1018.9
20260505120558 0 225 0.0 0.0 0.00 0.00 0.00 99 1019.0
20260505120054 0 40 4.8 8.0 0.00 0.00 0.00 99 1019.0
20260505115548 0 214 1.6 3.2 0.00 0.00 0.00 99 1019.2
20260505115046 0 283 1.6 3.2 0.00 0.00 0.00 99 1018.8
20260505114543 0 132 0.0 1.6 0.00 0.00 0.00 99 1019.2
20260505114039 0 299 6.4 8.0 0.00 0.00 0.00 99 1018.8
20260505113535 0 294 3.2 4.8 0.00 0.00 0.00 99 1018.8
20260505113032 0 271 4.8 8.0 0.00 0.00 0.00 99 1018.4
20260505112528 0 320 3.2 8.0 0.00 0.00 0.00 99 1018.5
20260505112026 1 12 1.6 3.2 0.00 0.00 0.00 99 1018.4
20260505111520 1 41 9.7 11.3 0.00 0.00 0.00 99 1018.3
20260505111017 1 241 0.0 0.0 0.00 0.00 0.00 99 1018.0
20260505110513 1 329 1.6 1.6 0.00 0.00 0.00 99 1017.9
20260505101945 3 260 0.0 1.6 0.00 0.00 0.00 99 1017.9
20260505101438 3 7 3.2 4.8 0.00 0.00 0.00 99 1017.9
20260505100934 3 26 3.2 4.8 0.00 0.00 0.00 99 1017.7
20260505100431 3 284 0.0 0.0 0.00 0.00 0.00 99 1017.4
20260505095927 3 228 0.0 0.0 0.00 0.00 0.00 99 1017.7
20260505095424 3 226 0.0 0.0 0.00 0.00 0.00 99 1017.7
20260505094920 3 232 0.0 0.0 0.00 0.00 0.00 99 1017.7
20260505094418 3 229 0.0 0.0 0.00 0.00 0.00 99 1017.4
20260505093913 3 229 0.0 0.0 0.00 0.00 0.00 99 1017.4
20260505093411 3 242 0.0 0.0 0.00 0.00 0.00 99 1017.4
20260505092908 3 217 0.0 0.0 0.00 0.00 0.00 99 1018.2
20260505092406 3 194 0.0 0.0 0.00 0.00 0.00 99 1017.9
20260505091903 3 224 0.0 0.0 0.00 0.00 0.00 99 1017.8
20260505091400 3 222 0.0 0.0 0.00 0.00 0.00 99 1017.8
20260505090858 3 224 0.0 0.0 0.00 0.00 0.00 99 1018.0
20260505090356 3 221 0.0 0.0 0.00 0.00 0.00 99 1017.5
20260505085853 3 224 0.0 0.0 0.00 0.00 0.00 99 1017.8
20260505085351 3 222 0.0 0.0 0.00 0.00 0.00 99 1017.8
20260505084849 3 218 0.0 0.0 0.00 0.00 0.00 99 1017.9
20260505084347 3 214 0.0 0.0 0.00 0.00 0.00 99 1017.9
20260505083845 3 222 0.0 0.0 0.00 0.00 0.00 99 1017.8
20260505083342 3 222 0.0 0.0 0.00 0.00 0.00 99 1018.2
20260505082838 3 216 0.0 0.0 0.00 0.00 0.00 99 1018.0
20260505082334 3 223 0.0 0.0 0.00 0.00 0.00 99 1018.0
20260505081831 3 218 0.0 0.0 0.00 0.00 0.00 99 1018.2
20260505081327 3 222 0.0 0.0 0.00 0.00 0.00 99 1018.3
20260505080824 3 222 0.0 0.0 0.00 0.00 0.00 99 1018.2
20260505080320 3 222 0.0 0.0 0.00 0.00 0.00 99 1018.3
20260505075816 3 225 0.0 0.0 0.00 0.00 0.00 99 1018.3
20260505075313 3 222 0.0 0.0 0.00 0.00 0.00 99 1018.3
20260505074810 3 219 0.0 0.0 0.00 0.00 0.00 99 1018.0
20260505074307 3 231 0.0 0.0 0.00 0.00 0.00 99 1018.2
20260505073805 3 225 0.0 0.0 0.00 0.00 0.00 99 1018.3
20260505073303 3 224 0.0 0.0 0.00 0.00 0.00 99 1018.4
20260505072759 3 227 0.0 0.0 0.00 0.00 0.00 99 1018.3
20260505072255 3 226 0.0 0.0 0.00 0.00 0.00 99 1018.8
20260505071751 3 224 0.0 0.0 0.00 0.00 0.00 99 1018.5
20260505071248 3 219 0.0 0.0 0.00 0.00 0.00 99 1018.5
20260505070745 3 231 0.0 0.0 0.00 0.00 0.00 99 1018.5
20260505070242 3 269 0.0 1.6 0.00 0.00 0.00 99 1018.7
20260505065738 3 239 0.0 0.0 0.00 0.00 0.00 99 1018.7
20260505065235 2 228 0.0 0.0 0.00 0.00 0.00 99 1018.8
20260505064732 2 220 0.0 0.0 0.00 0.00 0.00 99 1018.7
20260505064229 2 227 0.0 0.0 0.00 0.00 0.00 99 1018.9
20260505063726 2 219 0.0 0.0 0.00 0.00 0.00 99 1018.8
20260505063222 2 202 0.0 0.0 0.00 0.00 0.00 99 1018.5
20260505062719 2 207 0.0 0.0 0.00 0.00 0.00 99 1018.4
20260505062217 2 214 0.0 0.0 0.00 0.00 0.00 99 1018.5
20260505061713 3 223 0.0 0.0 0.00 0.00 0.00 99 1018.5
20260505061212 2 170 3.2 3.2 0.00 0.00 0.00 99 1018.4
20260505060708 2 214 0.0 0.0 0.00 0.00 0.00 99 1018.2
20260505060205 2 225 0.0 0.0 0.00 0.00 0.00 99 1018.5
20260505055700 2 218 0.0 0.0 0.00 0.99 0.99 99 1018.3
20260505055158 2 225 0.0 0.0 0.00 0.99 0.99 99 1018.5
20260505054655 3 224 0.0 0.0 0.00 0.99 0.99 99 1018.9
20260505054153 2 208 0.0 1.6 0.00 0.99 0.99 99 1018.8
20260505053650 2 214 0.0 0.0 0.00 0.99 0.99 99 1019.0
20260505053146 2 222 0.0 0.0 0.00 0.99 0.99 99 1018.7
20260505052643 2 225 0.0 0.0 0.00 0.99 0.99 99 1018.8
20260505052141 2 203 0.0 0.0 0.00 0.99 0.99 99 1018.7
20260505051637 2 224 0.0 0.0 0.00 0.99 0.99 99 1018.8
20260505051136 2 222 0.0 0.0 0.00 0.99 0.99 99 1018.8
20260505050633 3 209 0.0 0.0 0.00 0.99 0.99 99 1018.8
20260505050132 3 186 1.6 1.6 0.00 0.99 0.99 99 1019.2
20260505041601 3 223 0.0 0.0 0.00 0.99 0.99 99 1019.2
20260505041059 3 297 1.6 1.6 0.13 0.99 0.99 99 1019.3
20260505040555 3 250 0.0 1.6 0.43 0.99 0.99 99 1019.4
20260505040053 3 223 4.8 4.8 0.79 0.97 0.97 99 1019.6
20260505035549 3 204 3.2 3.2 0.79 0.91 0.91 99 1019.6
20260505035046 4 191 1.6 3.2 0.48 0.86 0.86 99 1019.8
20260505034542 3 231 0.0 0.0 0.48 0.81 0.81 99 1019.7
20260505034039 3 214 0.0 0.0 0.48 0.76 0.76 99 1019.7
20260505033536 4 221 0.0 0.0 0.89 0.74 0.74 99 1019.8
20260505033034 4 213 0.0 0.0 0.61 0.66 0.66 99 1019.6
20260505032531 5 210 0.0 0.0 0.30 0.58 0.58 99 1019.9
20260505032028 5 220 0.0 0.0 0.30 0.56 0.56 99 1019.7
20260505031525 5 222 0.0 0.0 0.18 0.53 0.53 99 1019.8
20260505031021 4 225 0.0 0.0 0.30 0.51 0.51 99 1019.4
20260505030518 5 248 0.0 0.0 0.43 0.51 0.51 99 1019.4
20260505030015 5 231 0.0 0.0 0.48 0.48 0.48 99 1018.9
20260505025511 5 218 0.0 1.6 0.48 0.43 0.43 99 1018.9
20260505025010 5 216 0.0 0.0 0.48 0.41 0.41 99 1019.0
20260505024506 5 201 1.6 1.6 0.18 0.36 0.36 99 1019.0
20260505024003 5 221 0.0 1.6 0.00 0.33 0.33 99 1018.9
20260505023500 5 190 1.6 3.2 0.00 0.33 0.33 99 1018.5
20260505022958 5 220 0.0 1.6 0.00 0.33 0.33 99 1018.8
20260505022455 5 219 0.0 0.0 0.00 0.33 0.33 99 1018.5
20260505021952 5 232 0.0 0.0 0.00 0.33 0.33 99 1018.3
20260505021449 5 220 0.0 0.0 0.00 0.33 0.33 99 1018.2
20260505020944 5 226 0.0 0.0 0.00 0.33 0.33 99 1018.4
20260505020439 5 219 0.0 0.0 0.00 0.33 0.33 99 1017.9
20260505015937 5 157 3.2 3.2 0.00 0.33 0.33 99 1017.9
20260505015434 5 199 1.6 1.6 0.00 0.33 0.33 99 1018.2
20260505014931 5 225 0.0 0.0 0.00 0.33 0.33 99 1018.2
20260505014428 5 224 0.0 1.6 0.00 0.33 0.33 99 1017.8
20260505013925 5 186 3.2 3.2 0.00 0.33 0.33 99 1017.9
20260505013422 5 249 1.6 1.6 0.00 0.33 0.33 99 1017.7
20260505012920 5 225 0.0 0.0 0.00 0.33 0.33 99 1017.7
20260505012418 5 205 1.6 1.6 0.00 0.33 0.33 99 1017.9
20260505011914 5 204 1.6 1.6 0.00 0.33 0.33 99 1018.2
20260505011410 5 202 1.6 1.6 0.00 0.33 0.33 99 1018.3
20260505010907 5 224 0.0 0.0 0.00 0.33 0.33 99 1018.2
20260505010403 5 225 0.0 0.0 0.00 0.33 0.33 99 1018.0
20260505005859 5 246 1.6 1.6 0.00 0.33 0.33 99 1017.9
20260505005356 5 229 0.0 0.0 0.00 0.33 0.33 99 1017.9
20260505004854 5 209 1.6 1.6 0.00 0.33 0.33 99 1018.0
20260505004349 5 209 0.0 0.0 0.00 0.33 0.33 99 1018.2
20260505003847 5 223 0.0 0.0 0.00 0.33 0.33 99 1018.3
20260505003344 5 236 0.0 0.0 0.00 0.33 0.33 99 1018.2
20260505002840 5 239 0.0 0.0 0.00 0.33 0.33 99 1018.3
20260505002337 5 249 1.6 1.6 0.00 0.33 0.33 99 1018.2
20260505001836 5 172 0.0 1.6 0.13 0.33 0.33 99 1018.9
20260505001332 5 147 3.2 3.2 0.13 0.33 0.33 99 1018.8
20260505000829 5 232 3.2 3.2 0.30 0.30 0.30 98 1018.9
20260505000327 5 229 0.0 0.0 0.48 0.30 0.30 99 1019.2
20260504235823 5 238 1.6 1.6 0.30 0.25 0.25 98 1019.4
20260504235320 5 231 1.6 1.6 0.13 0.23 0.23 98 1019.0
20260504234817 5 256 1.6 3.2 0.13 0.23 0.23 98 1018.9
20260504234315 5 234 3.2 3.2 0.00 0.20 0.20 98 1018.9
20260504233811 5 291 0.0 3.2 0.00 0.20 0.20 98 1018.3
20260504233307 5 231 1.6 1.6 0.18 0.20 0.20 98 1018.3
20260504232803 5 246 1.6 1.6 0.18 0.20 0.20 97 1018.2
20260504232303 6 245 3.2 4.8 0.00 0.18 0.18 97 1018.0
20260504231758 6 228 1.6 3.2 0.00 0.18 0.18 97 1018.0
20260504231254 6 227 0.0 1.6 0.13 0.18 0.18 96 1017.8
20260504230750 6 223 0.0 0.0 0.30 0.18 0.18 94 1017.8
20260504230248 6 214 0.0 0.0 0.30 0.15 0.15 92 1017.9
20260504225747 6 237 0.0 1.6 0.48 0.13 0.13 85 1017.7
20260504225243 6 150 3.2 4.8 0.36 0.10 0.10 84 1017.7
20260504224740 7 212 1.6 1.6 0.13 0.05 0.05 82 1017.4
20260504224238 8 207 1.6 1.6 0.30 0.05 0.05 77 1017.5
20260504223733 9 137 4.8 8.0 0.18 0.03 0.03 66 1017.4
20260504223229 10 226 1.6 1.6 0.00 0.00 0.00 58 1017.0
20260504222727 10 45 3.2 3.2 0.00 0.00 0.00 56 1017.2
20260504222223 11 41 8.0 12.9 0.00 0.00 0.00 58 1017.0
20260504221720 12 166 0.0 1.6 0.00 0.00 0.00 52 1016.9
20260504221218 12 63 6.4 8.0 0.00 0.00 0.00 46 1016.9
20260504220714 13 16 6.4 11.3 0.00 0.00 0.00 44 1017.0
20260504220212 13 156 8.0 9.7 0.00 0.00 0.00 44 1016.5
20260504215708 13 0 1.6 4.8 0.00 0.00 0.00 45 1016.3
20260504215206 13 223 1.6 1.6 0.00 0.00 0.00 44 1016.3
20260504214701 14 151 3.2 3.2 0.00 0.00 0.00 42 1016.1
20260504214158 14 302 1.6 1.6 0.00 0.00 0.00 42 1016.1
20260504213654 14 22 1.6 1.6 0.00 0.00 0.00 40 1016.5
20260504213151 14 159 3.2 3.2 0.00 0.00 0.00 39 1016.5
20260504212647 14 231 3.2 4.8 0.00 0.00 0.00 40 1016.4
20260504212144 15 271 4.8 8.0 0.00 0.00 0.00 39 1016.6
20260504211642 15 251 1.6 3.2 0.00 0.00 0.00 40 1016.6
20260504211138 14 105 3.2 4.8 0.00 0.00 0.00 41 1016.8
20260504210636 13 290 4.8 4.8 0.00 0.00 0.00 41 1016.8
20260504210132 14 132 0.0 1.6 0.00 0.00 0.00 43 1016.6
20260504205630 13 210 1.6 1.6 0.00 0.00 0.00 44 1017.0
20260504205127 13 338 4.8 8.0 0.00 0.00 0.00 42 1017.3